Showing default

OPS 0757 (TACSAT), 3691

Orbit data source: Space-Track

OPS 0757 (TACSAT), 3691 is a payload satellite owned by SAMSO (US) in GEO that was launched on Sun, 09 Feb 1969 UTC via a TITAN IIIC launch vehicle from the Air Force Eastern Test Range (AFETR). Payload-class satellites include a variety of spacecraft equipped with specific instruments for various scientific and technological missions. These include communications satellites like Starlink; space stations such as the ISS; scientific satellites like the Hubble; Earth observation satellites from companies like Planet Labs, Umbra, and HawkEye 360; GPS; miniature CubeSats for education and research; and military/defense satellites.

Loading next visibility...
Identifier
3691, 1969-013A
Orbit
GEO
Country
Flag of USUS
Related business
Manufacturer
Hughes
Mission
Non-operational spacecraft
Bus & Motor
HS-308, Unknown motor
Mass
721 kg wet, ~650 kg dry
Launch date (UTC)
1969-02-09 (57 years ago)
Launch vehicle
TITAN IIIC
Launch site
Air Force Eastern Test Range (AFETR)
Object type
Payload
Rocket body
Debris
Shape & HBR
Unknown
Radar Cross Section
Medium (>0.1 m² and <1 m²)

Expand to show TLE details & history
Last TLE update: 13 hours ago

TLE from 13 hours ago
0 OPS 0757 (TACSAT)
1 03691U 69013A   25293.23880322  .00000091  00000-0  00000-0 0  9997
2 03691   2.2370  75.8916 0023237 169.2308  90.9883  1.00435078111690
Epoch: 2025-10-20T05:43Z
TLE epoch observation values (Epoch: 2025-10-20T05:43:52.598Z)
Latitude
-2.18373°
Longitude
-138.57009°
Altitude
35,743.042 km
Speed
3.076 km/s
True Right ascension
22h 25m 22s
True Declination
-2° 10' 53"
Sunlit
Object was in daylight at epoch
Visualization orbit readout
Latitude
Unknown
Longitude
Unknown
Altitude
Unknown
Speed
Unknown
Apparent Right ascension
Unknown
Apparent Declination
Unknown
Sunlit
N/A
Visualization observer readout
Local Sidereal Time
13:27:09
Azimuth
Unknown
Elevation
Unknown
Doppler factor
Unknown
Orbital elements
Apogee altitude
35,839.824 km
Perigee altitude
35,644.075 km
Semi-major axis
42,120.086 km
Eccentricity
0.00232
Inclination
2.237°
RAAN
75.8916°
Arg. of periapsis
169.2308°
True anomaly
91.25452°
Mean anomaly
90.9883°
Eccentric anomaly
91.12141°
Mean motion
0.25108 °/min
Orbital period
1,433.82 mins
BSTAR
0
Loading maneuver chart data...
Computing Atmospheric mass density...

Documentation

Showing up to 5 results
|